CST,Max TemperatureF,Mean TemperatureF,Min TemperatureF,Max Dew PointF,MeanDew PointF,Min DewpointF,Max Humidity, Mean Humidity, Min Humidity, Max Sea Level PressureIn, Mean Sea Level PressureIn, Min Sea Level PressureIn, Max VisibilityMiles, Mean VisibilityMiles, Min VisibilityMiles, Max Wind SpeedMPH, Mean Wind SpeedMPH, Max Gust SpeedMPH,PrecipitationIn, CloudCover, Events, WindDirDegrees
2012-11-1,39,34,28,33,25,14,95,73,49,29.93,29.84,29.79,10,10,4,15,9,21,0.00,7,Snow,322
2012-11-2,40,32,25,27,22,19,84,69,44,30.17,30.06,29.94,10,10,10,14,9,20,0.00,1,,7
2012-11-3,36,30,23,27,23,21,95,81,58,30.24,30.20,30.18,10,10,10,8,2,,0.00,1,,49
2012-11-4,35,27,19,26,23,18,98,85,64,30.24,30.21,30.18,10,10,10,7,2,,0.00,1,,44
2012-11-5,33,27,21,25,22,20,96,84,64,30.23,30.17,30.05,10,10,10,7,3,,0.00,4,,82
2012-11-6,32,29,26,32,30,24,100,97,88,30.05,29.88,29.80,10,3,0,14,8,17,0.00,8,Fog-Snow,154
2012-11-7,36,34,32,34,32,31,100,96,87,30.10,30.04,29.90,10,5,0,7,2,,0.00,8,Fog,231
2012-11-8,46,38,30,34,32,30,99,87,62,30.10,30.04,29.96,10,8,4,15,6,20,0.00,4,,199
2012-11-9,43,38,33,36,35,32,98,86,72,30.10,30.06,30.03,10,9,5,15,5,20,0.00,8,,77
2012-11-10,49,42,34,49,41,32,100,98,87,30.08,29.86,29.71,10,4,0,18,12,25,0.01,8,Fog-Rain,112
2012-11-11,56,42,28,53,45,26,99,92,81,29.79,29.69,29.60,10,8,2,18,13,25,0.53,8,Rain,211
2012-11-12,27,23,19,25,16,11,92,78,63,30.17,29.94,29.80,10,9,2,21,14,26,0.04,8,Snow,262
2012-11-13,33,26,18,22,17,14,85,74,54,30.37,30.31,30.18,10,10,10,14,8,18,0.00,3,,238
2012-11-14,43,34,26,29,25,21,86,73,54,30.37,30.30,30.24,10,10,10,14,7,18,0.00,6,,176
2012-11-15,48,38,28,32,29,24,92,77,51,30.36,30.23,30.19,10,10,10,10,6,,0.00,3,,220
2012-11-16,39,32,24,30,24,22,94,77,52,30.49,30.43,30.36,10,10,10,8,5,,0.00,1,,94
2012-11-17,45,38,32,36,33,29,100,91,66,30.44,30.41,30.37,10,4,0,12,7,,0.00,4,Fog,168
2012-11-18,51,40,30,33,31,29,93,74,47,30.37,30.30,30.24,10,7,3,15,8,22,0.00,2,,158
2012-11-19,47,40,32,38,34,30,90,78,59,30.24,30.14,30.06,10,8,5,10,5,,0.00,6,Rain,158
2012-11-20,55,43,31,40,36,31,100,82,54,30.12,30.09,30.05,10,7,2,6,1,,0.00,2,,284
2012-11-21,55,40,25,41,36,25,100,83,53,30.11,30.00,29.88,10,6,0,16,5,22,0.00,2,Fog,201
2012-11-22,59,46,30,42,39,28,92,68,49,29.87,29.68,29.58,10,10,4,23,13,31,0.00,2,Snow,220
2012-11-23,29,24,19,27,17,13,89,78,65,30.14,29.92,29.66,10,8,2,28,20,41,0.00,8,Snow,304
2012-11-24,25,22,18,19,13,10,93,71,57,30.16,30.04,29.82,10,9,1,15,8,21,0.01,6,Snow,263
2012-11-25,27,22,18,21,19,10,96,83,67,30.01,29.83,29.74,10,9,1,16,8,24,0.02,8,Snow,278
2012-11-26,21,13,5,18,8,0,88,74,59,30.28,30.18,30.01,10,10,5,14,7,20,0.00,3,Snow,302
2012-11-27,28,16,3,21,12,-1,91,72,52,30.27,30.13,30.05,10,10,2,15,7,18,0.00,5,Snow,242
2012-11-28,27,22,16,19,15,11,91,75,58,30.25,30.17,30.10,10,10,10,14,8,20,0.00,2,,269
2012-11-29,33,24,14,25,21,13,95,83,68,30.20,30.12,30.08,10,9,5,15,4,18,0.00,3,,81
2012-11-30,30,26,22,30,25,20,100,96,88,30.21,30.18,30.15,10,5,0,14,10,20,0.00,8,Fog,87